owner,sensor,date,latitude,longitude,relative_humidity,qcFlag 
DISL,ioos:station:DISL:BSCA:1,2012-05-01T00:00:00Z,30.3288,-87.8293,77.85,1111122 
DISL,ioos:station:DISL:BSCA:1,2012-05-01T00:30:00Z,30.3288,-87.8293,78.56,1111122 
DISL,ioos:station:DISL:BSCA:1,2012-05-01T01:00:00Z,30.3288,-87.8293,80.2,1111122 
DISL,ioos:station:DISL:BSCA:1,2012-05-01T01:30:00Z,30.3288,-87.8293,79.98,1111122 
DISL,ioos:station:DISL:BSCA:1,2012-05-01T02:00:00Z,30.3288,-87.8293,80.5,1111122 
DISL,ioos:station:DISL:BSCA:1,2012-05-01T02:30:00Z,30.3288,-87.8293,79.84,1111122 
DISL,ioos:station:DISL:BSCA:1,2012-05-01T03:00:00Z,30.3288,-87.8293,82.5,1111122 
DISL,ioos:station:DISL:BSCA:1,2012-05-01T03:30:00Z,30.3288,-87.8293,84.2,1111122 
DISL,ioos:station:DISL:BSCA:1,2012-05-01T04:00:00Z,30.3288,-87.8293,85.7,1111122 
DISL,ioos:station:DISL:BSCA:1,2012-05-01T04:30:00Z,30.3288,-87.8293,84.8,1111122 
DISL,ioos:station:DISL:BSCA:1,2012-05-01T05:00:00Z,30.3288,-87.8293,85.8,1111122 
DISL,ioos:station:DISL:BSCA:1,2012-05-01T05:30:00Z,30.3288,-87.8293,89.7,1111122 
DISL,ioos:station:DISL:BSCA:1,2012-05-01T06:00:00Z,30.3288,-87.8293,92.5,1111122 
DISL,ioos:station:DISL:BSCA:1,2012-05-01T06:30:00Z,30.3288,-87.8293,93.2,1111122 
DISL,ioos:station:DISL:BSCA:1,2012-05-01T07:00:00Z,30.3288,-87.8293,93.3,1111122 
DISL,ioos:station:DISL:BSCA:1,2012-05-01T07:30:00Z,30.3288,-87.8293,93.5,1111122 
DISL,ioos:station:DISL:BSCA:1,2012-05-01T08:00:00Z,30.3288,-87.8293,94.5,1111122 
DISL,ioos:station:DISL:BSCA:1,2012-05-01T08:30:00Z,30.3288,-87.8293,94.0,1111122 
DISL,ioos:station:DISL:BSCA:1,2012-05-01T09:00:00Z,30.3288,-87.8293,94.6,1111122 
DISL,ioos:station:DISL:BSCA:1,2012-05-01T09:30:00Z,30.3288,-87.8293,95.2,1111122 
DISL,ioos:station:DISL:BSCA:1,2012-05-01T10:00:00Z,30.3288,-87.8293,95.9,1111122 
DISL,ioos:station:DISL:BSCA:1,2012-05-01T10:30:00Z,30.3288,-87.8293,95.9,1111122 
DISL,ioos:station:DISL:BSCA:1,2012-05-01T11:00:00Z,30.3288,-87.8293,95.4,1111122 
DISL,ioos:station:DISL:BSCA:1,2012-05-01T11:30:00Z,30.3288,-87.8293,95.4,1111122 
DISL,ioos:station:DISL:BSCA:1,2012-05-01T12:00:00Z,30.3288,-87.8293,91.0,1111122 
DISL,ioos:station:DISL:BSCA:1,2012-05-01T12:30:00Z,30.3288,-87.8293,90.0,1111122 
DISL,ioos:station:DISL:BSCA:1,2012-05-01T13:00:00Z,30.3288,-87.8293,89.1,1111122 
DISL,ioos:station:DISL:BSCA:1,2012-05-01T13:30:00Z,30.3288,-87.8293,85.2,1111122 
DISL,ioos:station:DISL:BSCA:1,2012-05-01T14:00:00Z,30.3288,-87.8293,81.6,1111122 
DISL,ioos:station:DISL:BSCA:1,2012-05-01T14:30:00Z,30.3288,-87.8293,70.09,1111122 
DISL,ioos:station:DISL:BSCA:1,2012-05-01T15:00:00Z,30.3288,-87.8293,73.98,1111122 
DISL,ioos:station:DISL:BSCA:1,2012-05-01T15:30:00Z,30.3288,-87.8293,68.75,1111122 
DISL,ioos:station:DISL:BSCA:1,2012-05-01T16:00:00Z,30.3288,-87.8293,72.5,1111122 
DISL,ioos:station:DISL:BSCA:1,2012-05-01T16:30:00Z,30.3288,-87.8293,70.57,1111122 
DISL,ioos:station:DISL:BSCA:1,2012-05-01T17:00:00Z,30.3288,-87.8293,74.77,1111122 
DISL,ioos:station:DISL:BSCA:1,2012-05-01T17:30:00Z,30.3288,-87.8293,74.74,1111122 
DISL,ioos:station:DISL:BSCA:1,2012-05-01T18:00:00Z,30.3288,-87.8293,76.74,1111122 
DISL,ioos:station:DISL:BSCA:1,2012-05-01T18:30:00Z,30.3288,-87.8293,73.21,1111122 
DISL,ioos:station:DISL:BSCA:1,2012-05-01T19:00:00Z,30.3288,-87.8293,71.39,1111122 
DISL,ioos:station:DISL:BSCA:1,2012-05-01T19:30:00Z,30.3288,-87.8293,74.33,1111122 
DISL,ioos:station:DISL:BSCA:1,2012-05-01T20:00:00Z,30.3288,-87.8293,71.99,1111122 
DISL,ioos:station:DISL:BSCA:1,2012-05-01T20:30:00Z,30.3288,-87.8293,72.06,1111122 
DISL,ioos:station:DISL:BSCA:1,2012-05-01T21:00:00Z,30.3288,-87.8293,72.43,1111122 
DISL,ioos:station:DISL:BSCA:1,2012-05-01T21:30:00Z,30.3288,-87.8293,76.53,1111122 
DISL,ioos:station:DISL:BSCA:1,2012-05-01T22:00:00Z,30.3288,-87.8293,75.11,1111122 
DISL,ioos:station:DISL:BSCA:1,2012-05-01T22:30:00Z,30.3288,-87.8293,72.77,1111122 
DISL,ioos:station:DISL:BSCA:1,2012-05-01T23:00:00Z,30.3288,-87.8293,73.32,1111122 
DISL,ioos:station:DISL:BSCA:1,2012-05-01T23:30:00Z,30.3288,-87.8293,77.11,1111122 
DISL,ioos:station:DISL:BSCA:1,2012-05-02T00:00:00Z,30.3288,-87.8293,80.4,1111122 
DISL,ioos:station:DISL:BSCA:1,2012-05-02T00:30:00Z,30.3288,-87.8293,81.4,1111122 
DISL,ioos:station:DISL:BSCA:1,2012-05-02T01:00:00Z,30.3288,-87.8293,84.9,1111122 
DISL,ioos:station:DISL:BSCA:1,2012-05-02T01:30:00Z,30.3288,-87.8293,85.1,1111122 
DISL,ioos:station:DISL:BSCA:1,2012-05-02T02:00:00Z,30.3288,-87.8293,84.1,1111122 
DISL,ioos:station:DISL:BSCA:1,2012-05-02T02:30:00Z,30.3288,-87.8293,82.4,1111122 
DISL,ioos:station:DISL:BSCA:1,2012-05-02T03:00:00Z,30.3288,-87.8293,82.4,1111122 
DISL,ioos:station:DISL:BSCA:1,2012-05-02T03:30:00Z,30.3288,-87.8293,82.8,1111122 
DISL,ioos:station:DISL:BSCA:1,2012-05-02T04:00:00Z,30.3288,-87.8293,84.8,1111122 
DISL,ioos:station:DISL:BSCA:1,2012-05-02T04:30:00Z,30.3288,-87.8293,84.7,1111122 
DISL,ioos:station:DISL:BSCA:1,2012-05-02T05:00:00Z,30.3288,-87.8293,82.1,1111122 
DISL,ioos:station:DISL:BSCA:1,2012-05-02T05:30:00Z,30.3288,-87.8293,81.5,1111122 
DISL,ioos:station:DISL:BSCA:1,2012-05-02T06:00:00Z,30.3288,-87.8293,82.3,1111122 
DISL,ioos:station:DISL:BSCA:1,2012-05-02T06:30:00Z,30.3288,-87.8293,83.5,1111122 
DISL,ioos:station:DISL:BSCA:1,2012-05-02T07:00:00Z,30.3288,-87.8293,82.8,1111122 
DISL,ioos:station:DISL:BSCA:1,2012-05-02T07:30:00Z,30.3288,-87.8293,81.1,1111122 
DISL,ioos:station:DISL:BSCA:1,2012-05-02T08:00:00Z,30.3288,-87.8293,79.84,1111122 
DISL,ioos:station:DISL:BSCA:1,2012-05-02T08:30:00Z,30.3288,-87.8293,78.32,1111122 
DISL,ioos:station:DISL:BSCA:1,2012-05-02T09:00:00Z,30.3288,-87.8293,76.15,1111122 
DISL,ioos:station:DISL:BSCA:1,2012-05-02T09:30:00Z,30.3288,-87.8293,78.69,1111122 
DISL,ioos:station:DISL:BSCA:1,2012-05-02T10:00:00Z,30.3288,-87.8293,78.62,1111122 
DISL,ioos:station:DISL:BSCA:1,2012-05-02T10:30:00Z,30.3288,-87.8293,80.9,1111122 
DISL,ioos:station:DISL:BSCA:1,2012-05-02T11:00:00Z,30.3288,-87.8293,83.4,1111122 
DISL,ioos:station:DISL:BSCA:1,2012-05-02T11:30:00Z,30.3288,-87.8293,86.6,1111122 
DISL,ioos:station:DISL:BSCA:1,2012-05-02T12:00:00Z,30.3288,-87.8293,87.1,1111122 
DISL,ioos:station:DISL:BSCA:1,2012-05-02T12:30:00Z,30.3288,-87.8293,87.2,1111122 
DISL,ioos:station:DISL:BSCA:1,2012-05-02T13:00:00Z,30.3288,-87.8293,86.4,1111122 
DISL,ioos:station:DISL:BSCA:1,2012-05-02T13:30:00Z,30.3288,-87.8293,85.8,1111122 
DISL,ioos:station:DISL:BSCA:1,2012-05-02T14:00:00Z,30.3288,-87.8293,87.3,1111122 
DISL,ioos:station:DISL:BSCA:1,2012-05-02T14:30:00Z,30.3288,-87.8293,85.1,1111122 
DISL,ioos:station:DISL:BSCA:1,2012-05-02T15:00:00Z,30.3288,-87.8293,84.7,1111122 
DISL,ioos:station:DISL:BSCA:1,2012-05-02T15:30:00Z,30.3288,-87.8293,85.3,1111122 
DISL,ioos:station:DISL:BSCA:1,2012-05-02T16:00:00Z,30.3288,-87.8293,86.3,1111122 
DISL,ioos:station:DISL:BSCA:1,2012-05-02T16:30:00Z,30.3288,-87.8293,86.7,1111122 
DISL,ioos:station:DISL:BSCA:1,2012-05-02T17:00:00Z,30.3288,-87.8293,87.4,1111122 
DISL,ioos:station:DISL:BSCA:1,2012-05-02T17:30:00Z,30.3288,-87.8293,86.7,1111122 
DISL,ioos:station:DISL:BSCA:1,2012-05-02T18:00:00Z,30.3288,-87.8293,89.6,1111122 
DISL,ioos:station:DISL:BSCA:1,2012-05-02T18:30:00Z,30.3288,-87.8293,90.4,1111122 
DISL,ioos:station:DISL:BSCA:1,2012-05-02T19:00:00Z,30.3288,-87.8293,94.6,1111122 
DISL,ioos:station:DISL:BSCA:1,2012-05-02T19:30:00Z,30.3288,-87.8293,92.2,1111122 
DISL,ioos:station:DISL:BSCA:1,2012-05-02T20:00:00Z,30.3288,-87.8293,92.0,1111122 
DISL,ioos:station:DISL:BSCA:1,2012-05-02T20:30:00Z,30.3288,-87.8293,90.5,1111122 
DISL,ioos:station:DISL:BSCA:1,2012-05-02T21:00:00Z,30.3288,-87.8293,91.9,1111122 
DISL,ioos:station:DISL:BSCA:1,2012-05-02T21:30:00Z,30.3288,-87.8293,93.1,1111122 
DISL,ioos:station:DISL:BSCA:1,2012-05-02T22:00:00Z,30.3288,-87.8293,91.1,1111122 
DISL,ioos:station:DISL:BSCA:1,2012-05-02T22:30:00Z,30.3288,-87.8293,90.9,1111122 
DISL,ioos:station:DISL:BSCA:1,2012-05-02T23:00:00Z,30.3288,-87.8293,92.5,1111122 
DISL,ioos:station:DISL:BSCA:1,2012-05-02T23:30:00Z,30.3288,-87.8293,93.5,1111122 
DISL,ioos:station:DISL:BSCA:1,2012-05-03T00:00:00Z,30.3288,-87.8293,93.4,1111122 
DISL,ioos:station:DISL:BSCA:1,2012-05-03T00:30:00Z,30.3288,-87.8293,93.3,1111122 
DISL,ioos:station:DISL:BSCA:1,2012-05-03T01:00:00Z,30.3288,-87.8293,92.8,1111122 
DISL,ioos:station:DISL:BSCA:1,2012-05-03T01:30:00Z,30.3288,-87.8293,91.6,1111122 
DISL,ioos:station:DISL:BSCA:1,2012-05-03T02:00:00Z,30.3288,-87.8293,91.5,1111122 
DISL,ioos:station:DISL:BSCA:1,2012-05-03T02:30:00Z,30.3288,-87.8293,92.3,1111122 
DISL,ioos:station:DISL:BSCA:1,2012-05-03T03:00:00Z,30.3288,-87.8293,92.3,1111122 
DISL,ioos:station:DISL:BSCA:1,2012-05-03T03:30:00Z,30.3288,-87.8293,93.7,1111122 
DISL,ioos:station:DISL:BSCA:1,2012-05-03T04:00:00Z,30.3288,-87.8293,94.2,1111122 
DISL,ioos:station:DISL:BSCA:1,2012-05-03T04:30:00Z,30.3288,-87.8293,94.6,1111122 
DISL,ioos:station:DISL:BSCA:1,2012-05-03T05:00:00Z,30.3288,-87.8293,95.1,1111122 
DISL,ioos:station:DISL:BSCA:1,2012-05-03T05:30:00Z,30.3288,-87.8293,95.3,1111122 
DISL,ioos:station:DISL:BSCA:1,2012-05-03T06:00:00Z,30.3288,-87.8293,95.4,1111122 
DISL,ioos:station:DISL:BSCA:1,2012-05-03T06:30:00Z,30.3288,-87.8293,95.1,1111122 
DISL,ioos:station:DISL:BSCA:1,2012-05-03T07:00:00Z,30.3288,-87.8293,93.7,1111122 
DISL,ioos:station:DISL:BSCA:1,2012-05-03T07:30:00Z,30.3288,-87.8293,93.9,1111122 
DISL,ioos:station:DISL:BSCA:1,2012-05-03T08:00:00Z,30.3288,-87.8293,90.0,1111122 
DISL,ioos:station:DISL:BSCA:1,2012-05-03T08:30:00Z,30.3288,-87.8293,86.6,1111122 
DISL,ioos:station:DISL:BSCA:1,2012-05-03T09:00:00Z,30.3288,-87.8293,91.1,1111122 
DISL,ioos:station:DISL:BSCA:1,2012-05-03T09:30:00Z,30.3288,-87.8293,92.4,1111122 
DISL,ioos:station:DISL:BSCA:1,2012-05-03T10:00:00Z,30.3288,-87.8293,92.8,1111122 
DISL,ioos:station:DISL:BSCA:1,2012-05-03T10:30:00Z,30.3288,-87.8293,94.3,1111122 
DISL,ioos:station:DISL:BSCA:1,2012-05-03T11:00:00Z,30.3288,-87.8293,94.5,1111122 
DISL,ioos:station:DISL:BSCA:1,2012-05-03T11:30:00Z,30.3288,-87.8293,92.2,1111122 
DISL,ioos:station:DISL:BSCA:1,2012-05-03T12:00:00Z,30.3288,-87.8293,90.9,1111122 
DISL,ioos:station:DISL:BSCA:1,2012-05-03T12:30:00Z,30.3288,-87.8293,89.9,1111122 
DISL,ioos:station:DISL:BSCA:1,2012-05-03T13:00:00Z,30.3288,-87.8293,89.3,1111122 
DISL,ioos:station:DISL:BSCA:1,2012-05-03T13:30:00Z,30.3288,-87.8293,88.2,1111122 
DISL,ioos:station:DISL:BSCA:1,2012-05-03T14:00:00Z,30.3288,-87.8293,89.0,1111122 
DISL,ioos:station:DISL:BSCA:1,2012-05-03T14:30:00Z,30.3288,-87.8293,87.1,1111122 
DISL,ioos:station:DISL:BSCA:1,2012-05-03T15:00:00Z,30.3288,-87.8293,84.5,1111122 
DISL,ioos:station:DISL:BSCA:1,2012-05-03T15:30:00Z,30.3288,-87.8293,83.2,1111122 
DISL,ioos:station:DISL:BSCA:1,2012-05-03T16:00:00Z,30.3288,-87.8293,83.7,1111122 
DISL,ioos:station:DISL:BSCA:1,2012-05-03T16:30:00Z,30.3288,-87.8293,84.0,1111122 
DISL,ioos:station:DISL:BSCA:1,2012-05-03T17:00:00Z,30.3288,-87.8293,82.7,1111122 
DISL,ioos:station:DISL:BSCA:1,2012-05-03T17:30:00Z,30.3288,-87.8293,82.4,1111122 
DISL,ioos:station:DISL:BSCA:1,2012-05-03T18:00:00Z,30.3288,-87.8293,82.9,1111122 
DISL,ioos:station:DISL:BSCA:1,2012-05-03T18:30:00Z,30.3288,-87.8293,82.1,1111122 
DISL,ioos:station:DISL:BSCA:1,2012-05-03T19:00:00Z,30.3288,-87.8293,81.0,1111122 
DISL,ioos:station:DISL:BSCA:1,2012-05-03T19:30:00Z,30.3288,-87.8293,80.8,1111122 
DISL,ioos:station:DISL:BSCA:1,2012-05-03T20:00:00Z,30.3288,-87.8293,83.4,1111122 
DISL,ioos:station:DISL:BSCA:1,2012-05-03T20:30:00Z,30.3288,-87.8293,81.9,1111122 
DISL,ioos:station:DISL:BSCA:1,2012-05-03T21:00:00Z,30.3288,-87.8293,83.4,1111122 
DISL,ioos:station:DISL:BSCA:1,2012-05-03T21:30:00Z,30.3288,-87.8293,84.9,1111122 
DISL,ioos:station:DISL:BSCA:1,2012-05-03T22:00:00Z,30.3288,-87.8293,84.8,1111122 
DISL,ioos:station:DISL:BSCA:1,2012-05-03T22:30:00Z,30.3288,-87.8293,83.7,1111122 
DISL,ioos:station:DISL:BSCA:1,2012-05-03T23:00:00Z,30.3288,-87.8293,85.0,1111122 
DISL,ioos:station:DISL:BSCA:1,2012-05-03T23:30:00Z,30.3288,-87.8293,85.2,1111122 
DISL,ioos:station:DISL:BSCA:1,2012-05-04T00:00:00Z,30.3288,-87.8293,86.1,1111122 
DISL,ioos:station:DISL:BSCA:1,2012-05-04T00:30:00Z,30.3288,-87.8293,86.5,1111122 
DISL,ioos:station:DISL:BSCA:1,2012-05-04T01:00:00Z,30.3288,-87.8293,88.1,1111122 
DISL,ioos:station:DISL:BSCA:1,2012-05-04T01:30:00Z,30.3288,-87.8293,88.2,1111122 
DISL,ioos:station:DISL:BSCA:1,2012-05-04T02:00:00Z,30.3288,-87.8293,87.4,1111122 
DISL,ioos:station:DISL:BSCA:1,2012-05-04T02:30:00Z,30.3288,-87.8293,88.1,1111122 
DISL,ioos:station:DISL:BSCA:1,2012-05-04T03:00:00Z,30.3288,-87.8293,89.4,1111122 
DISL,ioos:station:DISL:BSCA:1,2012-05-04T03:30:00Z,30.3288,-87.8293,89.6,1111122 
DISL,ioos:station:DISL:BSCA:1,2012-05-04T04:00:00Z,30.3288,-87.8293,89.6,1111122 
DISL,ioos:station:DISL:BSCA:1,2012-05-04T04:30:00Z,30.3288,-87.8293,88.7,1111122 
DISL,ioos:station:DISL:BSCA:1,2012-05-04T05:00:00Z,30.3288,-87.8293,88.3,1111122 
DISL,ioos:station:DISL:BSCA:1,2012-05-04T05:30:00Z,30.3288,-87.8293,88.0,1111122 
DISL,ioos:station:DISL:BSCA:1,2012-05-04T06:00:00Z,30.3288,-87.8293,87.9,1111122 
DISL,ioos:station:DISL:BSCA:1,2012-05-04T06:30:00Z,30.3288,-87.8293,88.6,1111122 
DISL,ioos:station:DISL:BSCA:1,2012-05-04T07:00:00Z,30.3288,-87.8293,88.6,1111122 
DISL,ioos:station:DISL:BSCA:1,2012-05-04T07:30:00Z,30.3288,-87.8293,89.2,1111122 
DISL,ioos:station:DISL:BSCA:1,2012-05-04T08:00:00Z,30.3288,-87.8293,90.2,1111122 
DISL,ioos:station:DISL:BSCA:1,2012-05-04T08:30:00Z,30.3288,-87.8293,89.4,1111122 
DISL,ioos:station:DISL:BSCA:1,2012-05-04T09:00:00Z,30.3288,-87.8293,88.9,1111122 
DISL,ioos:station:DISL:BSCA:1,2012-05-04T09:30:00Z,30.3288,-87.8293,89.9,1111122 
DISL,ioos:station:DISL:BSCA:1,2012-05-04T10:00:00Z,30.3288,-87.8293,93.6,1111122 
DISL,ioos:station:DISL:BSCA:1,2012-05-04T10:30:00Z,30.3288,-87.8293,94.7,1111122 
DISL,ioos:station:DISL:BSCA:1,2012-05-04T11:00:00Z,30.3288,-87.8293,92.4,1111122 
DISL,ioos:station:DISL:BSCA:1,2012-05-04T11:30:00Z,30.3288,-87.8293,92.2,1111122 
DISL,ioos:station:DISL:BSCA:1,2012-05-04T12:00:00Z,30.3288,-87.8293,88.8,1111122 
DISL,ioos:station:DISL:BSCA:1,2012-05-04T12:30:00Z,30.3288,-87.8293,88.4,1111122 
DISL,ioos:station:DISL:BSCA:1,2012-05-04T13:00:00Z,30.3288,-87.8293,89.7,1111122 
DISL,ioos:station:DISL:BSCA:1,2012-05-04T13:30:00Z,30.3288,-87.8293,87.4,1111122 
DISL,ioos:station:DISL:BSCA:1,2012-05-04T14:00:00Z,30.3288,-87.8293,85.9,1111122 
DISL,ioos:station:DISL:BSCA:1,2012-05-04T14:30:00Z,30.3288,-87.8293,85.2,1111122 
DISL,ioos:station:DISL:BSCA:1,2012-05-04T15:00:00Z,30.3288,-87.8293,83.2,1111122 
DISL,ioos:station:DISL:BSCA:1,2012-05-04T15:30:00Z,30.3288,-87.8293,80.7,1111122 
DISL,ioos:station:DISL:BSCA:1,2012-05-04T16:00:00Z,30.3288,-87.8293,81.6,1111122 
DISL,ioos:station:DISL:BSCA:1,2012-05-04T16:30:00Z,30.3288,-87.8293,85.4,1111122 
DISL,ioos:station:DISL:BSCA:1,2012-05-04T17:00:00Z,30.3288,-87.8293,83.6,1111122 
DISL,ioos:station:DISL:BSCA:1,2012-05-04T17:30:00Z,30.3288,-87.8293,85.3,1111122 
DISL,ioos:station:DISL:BSCA:1,2012-05-04T18:00:00Z,30.3288,-87.8293,85.8,1111122 
DISL,ioos:station:DISL:BSCA:1,2012-05-04T18:30:00Z,30.3288,-87.8293,86.1,1111122 
DISL,ioos:station:DISL:BSCA:1,2012-05-04T19:00:00Z,30.3288,-87.8293,84.4,1111122 
DISL,ioos:station:DISL:BSCA:1,2012-05-04T19:30:00Z,30.3288,-87.8293,87.8,1111122 
DISL,ioos:station:DISL:BSCA:1,2012-05-04T20:00:00Z,30.3288,-87.8293,87.2,1111122 
DISL,ioos:station:DISL:BSCA:1,2012-05-04T20:30:00Z,30.3288,-87.8293,85.7,1111122 
DISL,ioos:station:DISL:BSCA:1,2012-05-04T21:00:00Z,30.3288,-87.8293,83.5,1111122 
DISL,ioos:station:DISL:BSCA:1,2012-05-04T21:30:00Z,30.3288,-87.8293,83.6,1111122 
DISL,ioos:station:DISL:BSCA:1,2012-05-04T22:00:00Z,30.3288,-87.8293,84.3,1111122 
DISL,ioos:station:DISL:BSCA:1,2012-05-04T22:30:00Z,30.3288,-87.8293,84.5,1111122 
DISL,ioos:station:DISL:BSCA:1,2012-05-04T23:00:00Z,30.3288,-87.8293,85.0,1111122 
DISL,ioos:station:DISL:BSCA:1,2012-05-04T23:30:00Z,30.3288,-87.8293,85.7,1111122 
DISL,ioos:station:DISL:BSCA:1,2012-05-05T00:00:00Z,30.3288,-87.8293,83.9,1111122 
DISL,ioos:station:DISL:BSCA:1,2012-05-05T00:30:00Z,30.3288,-87.8293,84.6,1111122 
DISL,ioos:station:DISL:BSCA:1,2012-05-05T01:00:00Z,30.3288,-87.8293,84.4,1111122 
DISL,ioos:station:DISL:BSCA:1,2012-05-05T01:30:00Z,30.3288,-87.8293,84.0,1111122 
DISL,ioos:station:DISL:BSCA:1,2012-05-05T02:00:00Z,30.3288,-87.8293,88.2,1111122 
DISL,ioos:station:DISL:BSCA:1,2012-05-05T02:30:00Z,30.3288,-87.8293,89.3,1111122 
DISL,ioos:station:DISL:BSCA:1,2012-05-05T03:00:00Z,30.3288,-87.8293,90.5,1111122 
DISL,ioos:station:DISL:BSCA:1,2012-05-05T03:30:00Z,30.3288,-87.8293,91.7,1111122 
DISL,ioos:station:DISL:BSCA:1,2012-05-05T04:00:00Z,30.3288,-87.8293,92.2,1111122 
DISL,ioos:station:DISL:BSCA:1,2012-05-05T04:30:00Z,30.3288,-87.8293,88.1,1111122 
DISL,ioos:station:DISL:BSCA:1,2012-05-05T05:00:00Z,30.3288,-87.8293,88.8,1111122 
DISL,ioos:station:DISL:BSCA:1,2012-05-05T05:30:00Z,30.3288,-87.8293,87.7,1111122 
DISL,ioos:station:DISL:BSCA:1,2012-05-05T06:00:00Z,30.3288,-87.8293,87.4,1111122 
DISL,ioos:station:DISL:BSCA:1,2012-05-05T06:30:00Z,30.3288,-87.8293,88.4,1111122 
DISL,ioos:station:DISL:BSCA:1,2012-05-05T07:00:00Z,30.3288,-87.8293,86.9,1111122 
DISL,ioos:station:DISL:BSCA:1,2012-05-05T07:30:00Z,30.3288,-87.8293,87.0,1111122 
DISL,ioos:station:DISL:BSCA:1,2012-05-05T08:00:00Z,30.3288,-87.8293,88.0,1111122 
DISL,ioos:station:DISL:BSCA:1,2012-05-05T08:30:00Z,30.3288,-87.8293,87.3,1111122 
DISL,ioos:station:DISL:BSCA:1,2012-05-05T09:00:00Z,30.3288,-87.8293,86.7,1111122 
DISL,ioos:station:DISL:BSCA:1,2012-05-05T09:30:00Z,30.3288,-87.8293,86.2,1111122 
DISL,ioos:station:DISL:BSCA:1,2012-05-05T10:00:00Z,30.3288,-87.8293,92.1,1111122 
DISL,ioos:station:DISL:BSCA:1,2012-05-05T10:30:00Z,30.3288,-87.8293,92.7,1111122 
DISL,ioos:station:DISL:BSCA:1,2012-05-05T11:00:00Z,30.3288,-87.8293,94.1,1111122 
DISL,ioos:station:DISL:BSCA:1,2012-05-05T11:30:00Z,30.3288,-87.8293,95.1,1111122 
DISL,ioos:station:DISL:BSCA:1,2012-05-05T12:00:00Z,30.3288,-87.8293,94.4,1111122 
DISL,ioos:station:DISL:BSCA:1,2012-05-05T12:30:00Z,30.3288,-87.8293,94.0,1111122 
DISL,ioos:station:DISL:BSCA:1,2012-05-05T13:00:00Z,30.3288,-87.8293,93.5,1111122 
DISL,ioos:station:DISL:BSCA:1,2012-05-05T13:30:00Z,30.3288,-87.8293,91.1,1111122 
DISL,ioos:station:DISL:BSCA:1,2012-05-05T14:00:00Z,30.3288,-87.8293,88.7,1111122 
DISL,ioos:station:DISL:BSCA:1,2012-05-05T14:30:00Z,30.3288,-87.8293,84.6,1111122 
DISL,ioos:station:DISL:BSCA:1,2012-05-05T15:00:00Z,30.3288,-87.8293,84.4,1111122 
DISL,ioos:station:DISL:BSCA:1,2012-05-05T15:30:00Z,30.3288,-87.8293,83.7,1111122 
DISL,ioos:station:DISL:BSCA:1,2012-05-05T16:00:00Z,30.3288,-87.8293,81.8,1111122 
DISL,ioos:station:DISL:BSCA:1,2012-05-05T16:30:00Z,30.3288,-87.8293,80.6,1111122 
DISL,ioos:station:DISL:BSCA:1,2012-05-05T17:00:00Z,30.3288,-87.8293,79.78,1111122 
DISL,ioos:station:DISL:BSCA:1,2012-05-05T17:30:00Z,30.3288,-87.8293,77.45,1111122 
DISL,ioos:station:DISL:BSCA:1,2012-05-05T18:00:00Z,30.3288,-87.8293,82.1,1111122 
DISL,ioos:station:DISL:BSCA:1,2012-05-05T18:30:00Z,30.3288,-87.8293,83.3,1111122 
DISL,ioos:station:DISL:BSCA:1,2012-05-05T19:00:00Z,30.3288,-87.8293,84.0,1111122 
DISL,ioos:station:DISL:BSCA:1,2012-05-05T19:30:00Z,30.3288,-87.8293,83.5,1111122 
DISL,ioos:station:DISL:BSCA:1,2012-05-05T20:00:00Z,30.3288,-87.8293,82.6,1111122 
DISL,ioos:station:DISL:BSCA:1,2012-05-05T20:30:00Z,30.3288,-87.8293,81.2,1111122 
DISL,ioos:station:DISL:BSCA:1,2012-05-05T21:00:00Z,30.3288,-87.8293,77.85,1111122 
DISL,ioos:station:DISL:BSCA:1,2012-05-05T21:30:00Z,30.3288,-87.8293,79.38,1111122 
DISL,ioos:station:DISL:BSCA:1,2012-05-05T22:00:00Z,30.3288,-87.8293,79.38,1111122 
DISL,ioos:station:DISL:BSCA:1,2012-05-05T22:30:00Z,30.3288,-87.8293,79.61,1111122 
DISL,ioos:station:DISL:BSCA:1,2012-05-05T23:00:00Z,30.3288,-87.8293,82.3,1111122 
DISL,ioos:station:DISL:BSCA:1,2012-05-05T23:30:00Z,30.3288,-87.8293,78.71,1111122 
DISL,ioos:station:DISL:BSCA:1,2012-05-06T00:00:00Z,30.3288,-87.8293,80.6,1111122 
DISL,ioos:station:DISL:BSCA:1,2012-05-06T00:30:00Z,30.3288,-87.8293,83.3,1111122 
DISL,ioos:station:DISL:BSCA:1,2012-05-06T01:00:00Z,30.3288,-87.8293,83.7,1111122 
DISL,ioos:station:DISL:BSCA:1,2012-05-06T01:30:00Z,30.3288,-87.8293,82.9,1111122 
DISL,ioos:station:DISL:BSCA:1,2012-05-06T02:00:00Z,30.3288,-87.8293,84.1,1111122 
DISL,ioos:station:DISL:BSCA:1,2012-05-06T02:30:00Z,30.3288,-87.8293,82.7,1111122 
DISL,ioos:station:DISL:BSCA:1,2012-05-06T03:00:00Z,30.3288,-87.8293,83.1,1111122 
DISL,ioos:station:DISL:BSCA:1,2012-05-06T03:30:00Z,30.3288,-87.8293,83.7,1111122 
DISL,ioos:station:DISL:BSCA:1,2012-05-06T04:00:00Z,30.3288,-87.8293,83.3,1111122 
DISL,ioos:station:DISL:BSCA:1,2012-05-06T04:30:00Z,30.3288,-87.8293,84.4,1111122 
DISL,ioos:station:DISL:BSCA:1,2012-05-06T05:00:00Z,30.3288,-87.8293,83.1,1111122 
DISL,ioos:station:DISL:BSCA:1,2012-05-06T05:30:00Z,30.3288,-87.8293,83.2,1111122 
DISL,ioos:station:DISL:BSCA:1,2012-05-06T06:00:00Z,30.3288,-87.8293,84.0,1111122 
DISL,ioos:station:DISL:BSCA:1,2012-05-06T06:30:00Z,30.3288,-87.8293,84.1,1111122 
DISL,ioos:station:DISL:BSCA:1,2012-05-06T07:00:00Z,30.3288,-87.8293,83.6,1111122 
DISL,ioos:station:DISL:BSCA:1,2012-05-06T07:30:00Z,30.3288,-87.8293,84.9,1111122 
DISL,ioos:station:DISL:BSCA:1,2012-05-06T08:00:00Z,30.3288,-87.8293,91.3,1111122 
DISL,ioos:station:DISL:BSCA:1,2012-05-06T08:30:00Z,30.3288,-87.8293,92.6,1111122 
DISL,ioos:station:DISL:BSCA:1,2012-05-06T09:00:00Z,30.3288,-87.8293,93.8,1111122 
DISL,ioos:station:DISL:BSCA:1,2012-05-06T09:30:00Z,30.3288,-87.8293,94.4,1111122 
DISL,ioos:station:DISL:BSCA:1,2012-05-06T10:00:00Z,30.3288,-87.8293,95.1,1111122 
DISL,ioos:station:DISL:BSCA:1,2012-05-06T10:30:00Z,30.3288,-87.8293,95.3,1111122 
DISL,ioos:station:DISL:BSCA:1,2012-05-06T11:00:00Z,30.3288,-87.8293,95.1,1111122 
DISL,ioos:station:DISL:BSCA:1,2012-05-06T11:30:00Z,30.3288,-87.8293,94.7,1111122 
DISL,ioos:station:DISL:BSCA:1,2012-05-06T12:00:00Z,30.3288,-87.8293,94.6,1111122 
DISL,ioos:station:DISL:BSCA:1,2012-05-06T12:30:00Z,30.3288,-87.8293,93.1,1111122 
DISL,ioos:station:DISL:BSCA:1,2012-05-06T13:00:00Z,30.3288,-87.8293,89.8,1111122 
DISL,ioos:station:DISL:BSCA:1,2012-05-06T13:30:00Z,30.3288,-87.8293,86.6,1111122 
DISL,ioos:station:DISL:BSCA:1,2012-05-06T14:00:00Z,30.3288,-87.8293,80.6,1111122 
DISL,ioos:station:DISL:BSCA:1,2012-05-06T14:30:00Z,30.3288,-87.8293,74.38,1111122 
DISL,ioos:station:DISL:BSCA:1,2012-05-06T15:00:00Z,30.3288,-87.8293,78.43,1111122 
DISL,ioos:station:DISL:BSCA:1,2012-05-06T15:30:00Z,30.3288,-87.8293,80.7,1111122 
DISL,ioos:station:DISL:BSCA:1,2012-05-06T16:00:00Z,30.3288,-87.8293,78.6,1111122 
DISL,ioos:station:DISL:BSCA:1,2012-05-06T16:30:00Z,30.3288,-87.8293,73.45,1111122 
DISL,ioos:station:DISL:BSCA:1,2012-05-06T17:00:00Z,30.3288,-87.8293,70.5,1111122 
DISL,ioos:station:DISL:BSCA:1,2012-05-06T17:30:00Z,30.3288,-87.8293,75.82,1111122 
DISL,ioos:station:DISL:BSCA:1,2012-05-06T18:00:00Z,30.3288,-87.8293,78.12,1111122 
DISL,ioos:station:DISL:BSCA:1,2012-05-06T18:30:00Z,30.3288,-87.8293,78.8,1111122 
DISL,ioos:station:DISL:BSCA:1,2012-05-06T19:00:00Z,30.3288,-87.8293,77.58,1111122 
DISL,ioos:station:DISL:BSCA:1,2012-05-06T19:30:00Z,30.3288,-87.8293,75.08,1111122 
DISL,ioos:station:DISL:BSCA:1,2012-05-06T20:00:00Z,30.3288,-87.8293,76.16,1111122 
DISL,ioos:station:DISL:BSCA:1,2012-05-06T20:30:00Z,30.3288,-87.8293,76.3,1111122 
DISL,ioos:station:DISL:BSCA:1,2012-05-06T21:00:00Z,30.3288,-87.8293,76.19,1111122 
DISL,ioos:station:DISL:BSCA:1,2012-05-06T21:30:00Z,30.3288,-87.8293,78.87,1111122 
DISL,ioos:station:DISL:BSCA:1,2012-05-06T22:00:00Z,30.3288,-87.8293,79.51,1111122 
DISL,ioos:station:DISL:BSCA:1,2012-05-06T22:30:00Z,30.3288,-87.8293,79.17,1111122 
DISL,ioos:station:DISL:BSCA:1,2012-05-06T23:00:00Z,30.3288,-87.8293,79.82,1111122 
DISL,ioos:station:DISL:BSCA:1,2012-05-06T23:30:00Z,30.3288,-87.8293,79.74,1111122 
DISL,ioos:station:DISL:BSCA:1,2012-05-07T00:00:00Z,30.3288,-87.8293,79.64,1111122 
DISL,ioos:station:DISL:BSCA:1,2012-05-07T00:30:00Z,30.3288,-87.8293,80.2,1111122 
DISL,ioos:station:DISL:BSCA:1,2012-05-07T01:00:00Z,30.3288,-87.8293,73.83,1111122 